RYR99LW EPKK-EPSC

Flight info

Callsign RYR99LW
Flight time 0h 50m
Altitude 28000
Route LUMVE L619 ARMEX/N0439F360 L619 DENKO L996 XERBI DCT FORFE DCT ZAWIK
Aircraft B738/M-SDE2E3FGHIRWXY/LB1

Departure

Time 2026-05-01 12:04
Airport Kraków John Paul II International Airport (EPKK)

Arrival

Time 2026-05-01 12:54
Airport Solidarity Szczecin–Goleniów Airport (EPSC)
Time Latitude Longitude Altitude Speed Heading
2026-05-01 11:42 50.07478 19.80077 785 ft 0 kts 168°
2026-05-01 11:43 50.07473 19.80080 799 ft 0 kts 168°
2026-05-01 11:56 50.07472 19.80080 799 ft 1 kts 168°
2026-05-01 11:56 50.07441 19.80091 799 ft 11 kts 166°
2026-05-01 11:57 50.07415 19.80131 799 ft 12 kts 95°
2026-05-01 11:57 50.07434 19.80276 799 ft 20 kts 77°
2026-05-01 11:57 50.07514 19.80399 799 ft 15 kts 16°
2026-05-01 11:57 50.07633 19.80408 799 ft 17 kts 348°
2026-05-01 11:58 50.07742 19.80371 799 ft 15 kts 348°
2026-05-01 11:58 50.07838 19.80339 799 ft 9 kts 348°
2026-05-01 11:58 50.07841 19.80338 799 ft 0 kts 348°
2026-05-01 12:02 50.07862 19.80331 799 ft 9 kts 348°
2026-05-01 12:03 50.07968 19.80296 799 ft 19 kts 348°
2026-05-01 12:03 50.08016 19.80238 799 ft 3 kts 277°
2026-05-01 12:03 50.08010 19.80181 799 ft 13 kts 256°
2026-05-01 12:03 50.07944 19.79701 800 ft 82 kts 258°
2026-05-01 12:04 50.07774 19.78483 800 ft 145 kts 258°
2026-05-01 12:04 50.07558 19.76768 1216 ft 165 kts 259°
2026-05-01 12:04 50.07315 19.75000 2114 ft 167 kts 260°
2026-05-01 12:04 50.07056 19.73279 3034 ft 164 kts 262°
2026-05-01 12:05 50.06786 19.71431 3533 ft 190 kts 259°
2026-05-01 12:05 50.06241 19.67353 5254 ft 179 kts 262°
2026-05-01 12:05 50.05955 19.65503 6082 ft 184 kts 261°
2026-05-01 12:06 50.05758 19.63407 6355 ft 206 kts 283°
2026-05-01 12:06 50.06433 19.61435 6574 ft 217 kts 318°
2026-05-01 12:06 50.07628 19.59840 6847 ft 234 kts 325°
2026-05-01 12:06 50.08957 19.58263 7264 ft 250 kts 326°
2026-05-01 12:07 50.10395 19.56565 7774 ft 264 kts 326°
2026-05-01 12:07 50.11860 19.54811 8636 ft 266 kts 326°
2026-05-01 12:07 50.13329 19.53021 9504 ft 269 kts 327°
2026-05-01 12:07 50.14807 19.51200 10323 ft 273 kts 327°
2026-05-01 12:08 50.16329 19.49314 10798 ft 290 kts 327°
2026-05-01 12:08 50.17977 19.47264 10988 ft 315 kts 326°
2026-05-01 12:08 50.19707 19.45092 11412 ft 329 kts 326°
2026-05-01 12:08 50.21499 19.42821 12132 ft 334 kts 326°
2026-05-01 12:09 50.23308 19.40513 12904 ft 338 kts 326°
2026-05-01 12:09 50.25137 19.38173 13659 ft 342 kts 327°
2026-05-01 12:09 50.26986 19.35803 14383 ft 346 kts 327°
2026-05-01 12:09 50.28855 19.33404 15061 ft 349 kts 327°
2026-05-01 12:10 50.30741 19.30981 15722 ft 353 kts 327°
2026-05-01 12:10 50.34577 19.26045 17033 ft 361 kts 327°
2026-05-01 12:10 50.36524 19.23536 17706 ft 364 kts 327°
2026-05-01 12:11 50.40476 19.18434 18938 ft 372 kts 327°
2026-05-01 12:11 50.42480 19.15841 19520 ft 375 kts 327°
2026-05-01 12:11 50.44495 19.13232 20092 ft 378 kts 327°
2026-05-01 12:12 50.46531 19.10592 20649 ft 381 kts 327°
2026-05-01 12:12 50.48582 19.07931 21198 ft 384 kts 327°
2026-05-01 12:12 50.50652 19.05242 21735 ft 388 kts 327°
2026-05-01 12:12 50.52735 19.02532 22264 ft 391 kts 327°
2026-05-01 12:13 50.54839 18.99793 22787 ft 394 kts 327°
2026-05-01 12:13 50.56958 18.97031 23304 ft 397 kts 327°
2026-05-01 12:13 50.59088 18.94249 23902 ft 398 kts 327°
2026-05-01 12:13 50.61209 18.91471 24516 ft 395 kts 327°
2026-05-01 12:14 50.63310 18.88715 25145 ft 392 kts 327°
2026-05-01 12:14 50.65403 18.85969 25702 ft 391 kts 327°
2026-05-01 12:14 50.67491 18.83228 26253 ft 390 kts 327°
2026-05-01 12:14 50.69576 18.80490 26824 ft 389 kts 327°
2026-05-01 12:15 50.71648 18.77763 27410 ft 387 kts 327°
2026-05-01 12:15 50.73709 18.75051 27974 ft 386 kts 327°
2026-05-01 12:15 50.75771 18.72335 28343 ft 388 kts 327°
2026-05-01 12:15 50.77844 18.69603 28312 ft 386 kts 327°
2026-05-01 12:16 50.81948 18.64177 28333 ft 386 kts 327°
2026-05-01 12:16 50.86072 18.58715 28349 ft 387 kts 327°
2026-05-01 12:17 50.90211 18.53219 28336 ft 389 kts 327°
2026-05-01 12:17 50.94351 18.47707 28334 ft 388 kts 327°
2026-05-01 12:18 50.98480 18.42194 28336 ft 388 kts 327°
2026-05-01 12:18 51.02040 18.37430 28329 ft 385 kts 327°
2026-05-01 12:19 51.06132 18.31943 28332 ft 385 kts 327°
2026-05-01 12:19 51.10216 18.26456 28337 ft 385 kts 327°
2026-05-01 12:20 51.14275 18.20991 28340 ft 385 kts 326°
2026-05-01 12:20 51.18368 18.15465 28335 ft 386 kts 326°
2026-05-01 12:21 51.22463 18.09922 28339 ft 387 kts 326°
2026-05-01 12:21 51.26563 18.04360 28339 ft 387 kts 326°
2026-05-01 12:22 51.30664 17.98781 28342 ft 387 kts 326°
2026-05-01 12:22 51.34759 17.93197 28338 ft 387 kts 326°
2026-05-01 12:23 51.38855 17.87598 28346 ft 387 kts 326°
2026-05-01 12:23 51.42951 17.81987 28335 ft 387 kts 326°
2026-05-01 12:24 51.47041 17.76370 28338 ft 387 kts 326°
2026-05-01 12:24 51.51128 17.70742 28338 ft 387 kts 326°
2026-05-01 12:25 51.57244 17.62294 28345 ft 386 kts 325°
2026-05-01 12:26 51.61318 17.56651 28348 ft 386 kts 325°
2026-05-01 12:26 51.67418 17.48174 28340 ft 386 kts 325°
2026-05-01 12:27 51.73488 17.39709 28338 ft 386 kts 325°
2026-05-01 12:28 51.79570 17.31195 28342 ft 386 kts 325°
2026-05-01 12:29 51.85646 17.22658 28343 ft 386 kts 324°
2026-05-01 12:29 51.91720 17.14092 28346 ft 386 kts 324°
2026-05-01 12:30 51.97801 17.05484 28341 ft 387 kts 324°
2026-05-01 12:31 52.01854 16.99728 28347 ft 387 kts 324°
2026-05-01 12:31 52.05907 16.93958 28343 ft 388 kts 324°
2026-05-01 12:32 52.09958 16.88177 28351 ft 388 kts 324°
2026-05-01 12:32 52.26273 16.64765 28322 ft 373 kts 324°
2026-05-01 12:33 52.29803 16.59636 28120 ft 365 kts 324°
2026-05-01 12:33 52.31681 16.56911 27908 ft 358 kts 324°
2026-05-01 12:33 52.33541 16.54212 27560 ft 356 kts 324°
2026-05-01 12:33 52.35385 16.51537 27215 ft 353 kts 324°
2026-05-01 12:34 52.37221 16.48904 26830 ft 350 kts 326°
2026-05-01 12:34 52.39146 16.46462 26305 ft 351 kts 329°
2026-05-01 12:34 52.41124 16.44121 25862 ft 351 kts 330°
2026-05-01 12:34 52.43102 16.41819 25509 ft 348 kts 330°
2026-05-01 12:35 52.45076 16.39517 25147 ft 347 kts 330°
2026-05-01 12:35 52.47044 16.37208 24683 ft 349 kts 330°
2026-05-01 12:35 52.49020 16.34874 24184 ft 350 kts 330°
2026-05-01 12:35 52.50998 16.32523 23689 ft 349 kts 330°
2026-05-01 12:36 52.52944 16.30194 23130 ft 344 kts 330°
2026-05-01 12:36 52.54865 16.27888 22589 ft 340 kts 330°
2026-05-01 12:36 52.56762 16.25607 22054 ft 335 kts 330°
2026-05-01 12:36 52.58632 16.23354 21525 ft 331 kts 330°
2026-05-01 12:37 52.60481 16.21125 21017 ft 328 kts 330°
2026-05-01 12:37 52.62313 16.18914 20510 ft 325 kts 330°
2026-05-01 12:37 52.64123 16.16728 20017 ft 321 kts 329°
2026-05-01 12:37 52.65917 16.14558 19532 ft 319 kts 329°
2026-05-01 12:38 52.67699 16.12403 19052 ft 316 kts 329°
2026-05-01 12:38 52.69464 16.10264 18573 ft 314 kts 329°
2026-05-01 12:38 52.71217 16.08139 18025 ft 311 kts 329°
2026-05-01 12:38 52.72955 16.06029 17517 ft 309 kts 329°
2026-05-01 12:39 52.74680 16.03931 16984 ft 307 kts 329°
2026-05-01 12:39 52.76394 16.01846 16472 ft 305 kts 329°
2026-05-01 12:39 52.78078 15.99797 15981 ft 303 kts 328°
2026-05-01 12:39 52.79772 15.97730 15474 ft 302 kts 328°
2026-05-01 12:40 52.81442 15.95689 15126 ft 295 kts 328°
2026-05-01 12:40 52.83074 15.93694 14812 ft 288 kts 328°
2026-05-01 12:40 52.84670 15.91741 14512 ft 284 kts 328°
2026-05-01 12:40 52.86256 15.89801 14227 ft 284 kts 328°
2026-05-01 12:41 52.87843 15.87859 13890 ft 283 kts 328°
2026-05-01 12:41 52.89425 15.85924 13586 ft 283 kts 328°
2026-05-01 12:41 52.91003 15.83989 13281 ft 282 kts 328°
2026-05-01 12:41 52.92572 15.82064 12990 ft 280 kts 328°
2026-05-01 12:42 52.94139 15.80136 12679 ft 280 kts 328°
2026-05-01 12:42 52.95696 15.78220 12396 ft 279 kts 328°
2026-05-01 12:42 52.97255 15.76300 12106 ft 278 kts 327°
2026-05-01 12:42 52.98806 15.74388 11817 ft 278 kts 327°
2026-05-01 12:43 53.00359 15.72474 11521 ft 278 kts 327°
2026-05-01 12:43 53.01913 15.70552 11221 ft 278 kts 327°
2026-05-01 12:43 53.03470 15.68632 10931 ft 279 kts 327°
2026-05-01 12:43 53.05023 15.66708 10649 ft 279 kts 327°
2026-05-01 12:44 53.06573 15.64791 10481 ft 274 kts 327°
2026-05-01 12:44 53.08085 15.62913 10292 ft 270 kts 327°
2026-05-01 12:44 53.11088 15.59181 9697 ft 269 kts 327°
2026-05-01 12:45 53.14070 15.55467 9149 ft 267 kts 326°
2026-05-01 12:45 53.15554 15.53620 8847 ft 266 kts 326°
2026-05-01 12:45 53.19788 15.48353 8001 ft 268 kts 326°
2026-05-01 12:46 53.21272 15.46506 7669 ft 269 kts 326°
2026-05-01 12:46 53.22765 15.44637 7267 ft 274 kts 326°
2026-05-01 12:46 53.24253 15.42767 7077 ft 264 kts 326°
2026-05-01 12:46 53.25252 15.41512 6737 ft 265 kts 326°
2026-05-01 12:47 53.27176 15.39096 6315 ft 258 kts 326°
2026-05-01 12:47 53.28591 15.37321 6031 ft 251 kts 326°
2026-05-01 12:47 53.29970 15.35587 5773 ft 245 kts 325°
2026-05-01 12:47 53.31320 15.33889 5513 ft 242 kts 325°
2026-05-01 12:48 53.32659 15.32204 5275 ft 240 kts 325°
2026-05-01 12:48 53.33565 15.31078 5120 ft 240 kts 324°
2026-05-01 12:48 53.34908 15.29411 4857 ft 241 kts 324°
2026-05-01 12:48 53.36241 15.27718 4650 ft 239 kts 323°
2026-05-01 12:49 53.42135 15.20234 3689 ft 240 kts 324°
2026-05-01 12:49 53.43460 15.18587 3612 ft 234 kts 324°
2026-05-01 12:49 53.44724 15.16898 3477 ft 229 kts 316°
2026-05-01 12:49 53.45739 15.14987 3476 ft 209 kts 311°
2026-05-01 12:50 53.46633 15.13273 3410 ft 192 kts 313°
2026-05-01 12:50 53.47484 15.11648 3230 ft 186 kts 313°
2026-05-01 12:50 53.48361 15.10010 2988 ft 182 kts 311°
2026-05-01 12:50 53.49138 15.08433 2777 ft 173 kts 312°
2026-05-01 12:51 53.49908 15.06917 2552 ft 170 kts 311°
2026-05-01 12:51 53.50695 15.05442 2302 ft 163 kts 315°
2026-05-01 12:51 53.52092 15.02616 1866 ft 151 kts 316°
2026-05-01 12:52 53.52794 15.01317 1688 ft 151 kts 309°
2026-05-01 12:52 53.54083 14.98785 1286 ft 137 kts 311°
2026-05-01 12:52 53.54699 14.97574 1108 ft 137 kts 313°
2026-05-01 12:53 53.55930 14.95177 783 ft 137 kts 310°
2026-05-01 12:53 53.56556 14.93952 567 ft 140 kts 310°
2026-05-01 12:53 53.57184 14.92718 354 ft 137 kts 310°
2026-05-01 12:54 53.57806 14.91520 182 ft 135 kts 310°
2026-05-01 12:54 53.58678 14.89829 138 ft 44 kts 311°
2026-05-01 12:54 53.58846 14.89505 140 ft 19 kts 311°
2026-05-01 12:55 53.59029 14.89153 142 ft 18 kts 317°
2026-05-01 12:55 53.59089 14.89148 141 ft 2 kts 39°
2026-05-01 12:55 53.59098 14.89160 141 ft 2 kts 38°
2026-05-01 12:56 53.59103 14.89167 141 ft 3 kts 38°
2026-05-01 12:56 53.59143 14.89221 141 ft 12 kts 43°
2026-05-01 12:56 53.59201 14.89315 141 ft 4 kts 46°
2026-05-01 12:56 53.59217 14.89343 141 ft 3 kts 46°
2026-05-01 12:57 53.59238 14.89380 141 ft 8 kts 46°
2026-05-01 12:57 53.59249 14.89399 141 ft 0 kts 46°